* Astronomy

Members Login
Post Info TOPIC: Comet C/2010 G3 (WISE)


L

Posts: 131433
Date:
RE: Comet C/2010 G3 (WISE)
Permalink  
 


Orbital elements:
C/2010 G3 (WISE)
Epoch 2010 Mar. 25.0 TT = JDT 2455280.5
T 2010 Apr. 10.86152 TT MPC
q 4.9075889 (2000.0) P Q
z +0.0003878 Peri. 75.16999 -0.04213018 -0.72602749
+/-0.0000577 Node 313.71406 -0.72699851 +0.49351630
e 0.9980969 Incl. 108.26678 +0.68534532 +0.47887967

MPEC 2010 - M42


__________________


L

Posts: 131433
Date:
Permalink  
 

Orbital elements:
C/2010 G3 (WISE)
T 2010 Apr. 10.8869 TT MPC
q 4.908289 (2000.0) P Q
Peri. 75.1732 -0.0421406 -0.7260502
Node 313.7166 -0.7269637 +0.4935299
e 1.0 Incl. 108.2657 +0.6853816 +0.4788313
From 119 observations 2010 Apr. 14-June 13.

MPEC 2010 - L70


__________________


L

Posts: 131433
Date:
Permalink  
 

Orbital elements:
C/2010 G3 (WISE)
T 2010 Apr. 10.8753 TT MPC
q 4.908284 (2000.0) P Q
Peri. 75.1712 -0.0421225 -0.7260336
Node 313.7151 -0.7269770 +0.4935234
e 1.0 Incl. 108.2654 +0.6853686 +0.4788631
From 96 observations 2010 Apr. 14-June 7.

MPEC 2010 - L33


__________________


L

Posts: 131433
Date:
Permalink  
 

Orbital elements:
C/2010 G3 (WISE)
T 2010 Apr. 10.5209 TT MPC
q 4.908172 (2000.0) P Q
Peri. 75.1237 -0.0415509 -0.7259880
Node 313.7083 -0.7273707 +0.4930017
e 1.0 Incl. 108.2640 +0.6849856 +0.4794692
From 84 observations 2010 Apr. 14-May 25.

MPEC 2010 - L03


__________________


L

Posts: 131433
Date:
Permalink  
 

Orbital elements:
C/2010 G3 (WISE)
T 2010 Apr. 10.2567 TT MPC
q 4.908149 (2000.0) P Q
Peri. 75.0888 -0.0411223 -0.7259741
Node 313.7050 -0.7276625 +0.4925983
e 1.0 Incl. 108.2632 +0.6847016 +0.4799047
From 81 observations 2010 Apr. 14-May 22.

MPEC 2010 - K49


__________________


L

Posts: 131433
Date:
Permalink  
 

Comet C/2010 G3 (WISE) makes its closest approach to the Earth (4.669 AU) on the 22nd May, 2010.

__________________


L

Posts: 131433
Date:
Permalink  
 

Orbital elements:
C/2010 G3 (WISE)
T 2010 Apr. 8.9583 TT MPC
q 4.907947 (2000.0) P Q
Peri. 74.9167 -0.0390197 -0.7258803
Node 313.6870 -0.7290946 +0.4906287
e 1.0 Incl. 108.2592 +0.6832997 +0.4820595
From 74 observations 2010 Apr. 14-May 18.

MPEC 2010 - K18


__________________


L

Posts: 131433
Date:
Permalink  
 

Orbital elements:
C/2010 G3 (WISE)
T 2010 Apr. 7.767 TT MPC
q 4.90774 (2000.0) P Q
Peri. 74.758 -0.037092 -0.725751
Node 313.667 -0.730405 +0.488843
e 1.0 Incl. 108.255 +0.682006 +0.484063
From 71 observations 2010 Apr. 14-May 8.

MPEC 2010 - J38


__________________


L

Posts: 131433
Date:
Permalink  
 

Orbital elements:
C/2010 G3 (WISE)
T 2010 Apr. 5.225 TT MPC
q 4.90744 (2000.0) P Q
Peri. 74.421 -0.032973 -0.725543
Node 313.633 -0.733181 +0.484963
e 1.0 Incl. 108.246 +0.679234 +0.488260
From 65 observations 2010 Apr. 14-May 2.

MPEC 2010 - J07


__________________


L

Posts: 131433
Date:
Permalink  
 

Orbital elements:
C/2010 G3 (WISE)
T 2010 Mar. 4.231 TT MPC
q 4.89775 (2000.0) P Q
Peri. 70.176 +0.018662 -0.721002
Node 313.205 -0.766378 +0.434623
e 1.0 Incl. 108.141 +0.642119 +0.539684
From 47 observations 2010 Apr. 14-23.

MPEC 2010 - H56


__________________
1 2  >  Last»  | Page of 2  sorted by
Quick Reply

Please log in to post quick replies.



Create your own FREE Forum
Report Abuse
Powered by ActiveBoard